Temp
70 69 69 68 68 69 68 68 68 68 68 68 67 68 68 68 70 70 70 70 70 69 70 69 69 68 68 67 67 67 67 65 65 65 65 64 64 64 64 66 67 67
69 69 69 69 69 69 69 68 68 68 68 68 68 68 69 69 70 70 70 70 70 70 70 69 69 69 68 67 67 65 64 64 64 67 65 64 63 64 64 64 65 67
69 69 69 68 67 68 69 69 68 68 68 69 69 68 68 69 69 69 69 69 69 69 69 69 69 68 68 68 67 65 63 63 63 64 64 64 64 63 62 64 63 65
69 69 69 69 69 69 68 68 68 68 68 68 68 69 69 69 69 69 68 70 69 69 69 69 69 68 68 68 67 64 64 62 62 62 62 63 64 64 64 63 62 64
69 69 69 69 69 69 68 68 68 68 68 68 68 68 68 68 67 68 68 68 68 69 69 69 69 68 68 67 63 61 64 63 65 64 63 62 63 62 63 63 62 62
69 70 70 70 69 68 67 68 69 69 68 67 67 68 68 69 68 69 68 67 68 68 69 69 69 68 68 67 64 61 62 62 63 64 62 62 62 63 64 62 62 62
68 68 68 69 68 68 67 67 67 68 67 67 68 67 68 68 68 69 70 67 69 68 69 69 68 68 67 66 64 62 62 63 64 64 63 61 62 62 64 63 63 63
68 68 69 69 68 67 67 67 67 67 67 68 66 67 68 69 70 69 69 69 68 69 68 69 69 69 68 66 65 62 62 63 64 63 62 61 60 60 62 63 62 61
68 68 69 68 67 66 66 67 66 67 68 67 67 67 68 68 68 68 68 69 68 68 68 68 68 68 67 66 64 64 63 62 62 62 61 60 60 60 61 61 61 60
67 68 67 67 66 66 66 66 67 67 68 68 68 67 68 67 68 69 68 67 67 68 68 68 68 67 67 67 66 63 61 58 59 61 60 60 60 60 60 60 60 60
66 67 66 66 65 66 66 66 66 67 67 68 67 67 68 67 67 68 67 67 66 67 67 68 68 67 67 66 64 62 60 59 59 60 60 60 60 60 60 59 60 59
66 66 66 66 66 66 66 66 66 67 67 67 69 67 67 67 67 67 68 68 68 68 68 67 68 67 66 62 61 60 59 58 59 59 59 61 61 60 60 60 60 60
67 66 66 66 66 65 66 67 67 67 68 68 68 67 67 67 67 67 67 67 67 67 67 67 67 67 63 61 60 60 59 59 59 60 61 62 63 62 62 61 61 61
66 66 66 66 66 67 67 66 66 67 67 66 67 66 67 67 66 66 66 67 67 67 67 67 67 66 62 61 60 60 60 60 61 61 61 61 62 62 62 62 61 61
67 67 66 67 67 67 66 66 66 65 66 66 66 66 66 66 66 66 66 66 67 66 66 66 65 63 61 60 59 59 59 60 60 60 60 60 60 61 61 61 61 61
68 67 67 66 66 66 66 65 66 65 65 65 66 66 65 65 65 65 65 65 65 65 65 64 63 62 61 54 52 54 56 58 59 59 59 59 59 59 59 59 59 59
67 67 67 67 66 66 65 66 66 65 64 65 64 64 63 64 64 64 64 64 64 64 63 63 63 62 51 42 43 46 52 56 57 57 58 59 59 58 58 58 58 58
67 67 67 66 65 66 66 65 65 65 64 64 63 62 63 63 62 63 63 63 63 63 62 62 63 54 42 44 44 43 47 52 55 56 57 58 58 58 58 57 57 57
67 67 66 66 65 65 64 64 63 64 63 62 62 62 62 62 62 62 62 62 62 62 62 62 63 51 44 44 44 43 42 48 55 56 57 57 57 57 57 57 56 56
67 66 65 65 65 64 63 63 62 62 61 61 62 62 61 61 61 61 61 62 62 62 62 62 62 56 43 44 43 41 41 43 54 56 57 57 57 57 56 56 56 56
66 65 64 64 64 63 62 62 62 61 61 61 61 61 60 60 60 60 61 61 62 62 62 61 63 49 42 42 41 42 42 46 56 58 58 58 58 57 57 56 56 56
66 65 64 64 63 62 62 61 60 60 60 61 60 60 61 61 61 61 61 61 61 61 60 60 62 45 41 41 42 41 44 55 57 57 57 58 58 58 58 57 56 56
65 64 63 62 62 61 61 60 60 60 60 61 60 60 60 60 60 60 61 61 61 61 60 59 60 44 41 41 42 41 47 55 56 56 57 57 57 57 57 58 57 56
65 65 63 62 62 61 60 60 60 60 60 61 59 59 59 60 61 61 61 61 60 60 60 59 58 47 41 41 41 41 47 53 55 55 55 56 57 56 55 56 57 59
65 64 63 62 61 61 60 60 60 60 60 60 60 60 60 61 61 61 60 61 61 60 61 59 56 53 41 40 41 40 46 53 54 55 54 55 54 54 55 56 57 58
64 63 62 61 61 61 60 60 60 60 59 59 59 61 61 61 61 60 60 60 60 60 60 58 57 55 47 39 41 42 41 48 55 54 53 53 53 53 54 56 56 55
MSLP
1019.06 1019.02 1018.98 1018.86 1018.74 1018.62 1018.54 1018.54 1018.38 1018.26 1018.10 1017.90 1017.86 1017.74 1017.62 1017.42 1017.14 1017.06 1016.94 1016.82 1016.70 1016.62 1016.46 1016.34 1016.22 1016.18 1016.14 1016.10 1016.06 1016.10 1016.14 1016.10 1015.94 1015.98 1016.02 1016.02 1015.98 1015.90 1015.82 1015.74 1015.70 1015.66
1019.14 1019.06 1018.94 1018.82 1018.74 1018.54 1018.42 1018.38 1018.38 1018.26 1018.10 1017.94 1017.78 1017.70 1017.50 1017.34 1017.14 1017.02 1016.94 1016.82 1016.66 1016.54 1016.42 1016.34 1016.22 1016.10 1016.02 1016.02 1015.94 1015.98 1016.02 1016.02 1016.02 1015.82 1015.86 1015.86 1015.82 1015.90 1015.74 1015.42 1015.66 1015.66
1019.22 1019.10 1019.02 1018.94 1018.86 1018.66 1018.50 1018.38 1018.34 1018.22 1018.10 1017.94 1017.78 1017.70 1017.62 1017.34 1017.18 1017.02 1016.86 1016.70 1016.58 1016.42 1016.34 1016.22 1016.14 1016.06 1015.98 1015.82 1015.82 1015.86 1015.94 1015.90 1015.94 1015.82 1015.78 1015.70 1015.70 1015.78 1015.66 1015.54 1015.26 1015.42
1019.30 1019.18 1019.14 1018.98 1018.82 1018.70 1018.54 1018.50 1018.42 1018.22 1018.02 1017.98 1017.94 1017.74 1017.58 1017.42 1017.22 1017.10 1016.90 1016.66 1016.50 1016.34 1016.18 1016.06 1015.94 1015.90 1015.82 1015.66 1015.54 1015.74 1015.70 1015.78 1015.70 1015.66 1015.66 1015.50 1015.30 1015.50 1015.62 1015.42 1015.34 1015.18
1019.34 1019.22 1019.14 1019.02 1018.82 1018.70 1018.70 1018.70 1018.54 1018.34 1018.18 1018.06 1017.90 1017.74 1017.58 1017.34 1017.22 1017.10 1016.94 1016.74 1016.62 1016.46 1016.18 1015.90 1015.74 1015.66 1015.62 1015.54 1015.94 1016.54 1016.06 1015.86 1015.62 1015.38 1015.26 1015.18 1015.14 1015.42 1015.74 1015.42 1015.10 1015.02
1019.34 1019.26 1019.10 1019.02 1018.90 1018.90 1018.90 1018.78 1018.54 1018.42 1018.30 1018.18 1018.02 1017.74 1017.50 1017.22 1017.10 1016.98 1016.78 1016.74 1016.66 1016.54 1016.26 1015.86 1015.66 1015.54 1015.42 1015.46 1015.62 1015.86 1015.94 1015.94 1015.66 1015.38 1015.42 1015.42 1015.22 1015.06 1015.02 1015.30 1015.26 1014.94
1019.42 1019.26 1019.14 1018.98 1018.98 1018.94 1018.94 1018.82 1018.62 1018.34 1018.14 1018.02 1017.86 1017.70 1017.38 1017.18 1017.06 1016.82 1016.58 1016.50 1016.46 1016.46 1016.30 1016.02 1015.70 1015.46 1015.34 1015.38 1015.46 1015.54 1015.54 1015.54 1015.30 1015.18 1015.22 1015.22 1015.18 1014.94 1014.78 1014.70 1014.66 1014.54
1019.46 1019.26 1019.10 1018.98 1018.98 1018.94 1018.90 1018.78 1018.54 1018.26 1017.98 1017.86 1017.86 1017.58 1017.34 1017.18 1016.98 1016.82 1016.66 1016.50 1016.46 1016.34 1016.22 1016.02 1015.78 1015.46 1015.26 1015.30 1015.42 1015.54 1015.46 1015.46 1015.30 1015.06 1015.02 1014.98 1015.10 1015.18 1014.90 1014.54 1014.46 1014.54
1019.46 1019.34 1019.18 1019.02 1018.98 1018.90 1018.74 1018.50 1018.38 1018.22 1017.94 1017.86 1017.70 1017.50 1017.30 1017.14 1017.02 1016.94 1016.82 1016.66 1016.54 1016.34 1016.10 1015.98 1015.82 1015.58 1015.34 1015.26 1015.26 1015.18 1015.26 1015.38 1015.30 1014.94 1014.82 1014.74 1014.74 1014.78 1014.58 1014.42 1014.38 1014.30
1019.58 1019.38 1019.22 1019.14 1019.06 1018.78 1018.66 1018.46 1018.30 1018.18 1017.98 1017.86 1017.70 1017.46 1017.30 1017.18 1017.06 1016.94 1016.86 1016.74 1016.58 1016.34 1016.10 1015.86 1015.66 1015.54 1015.38 1015.18 1015.18 1015.38 1015.70 1016.18 1016.10 1015.14 1014.78 1014.70 1014.66 1014.54 1014.38 1014.38 1014.22 1013.98
1019.62 1019.38 1019.26 1019.14 1018.94 1018.70 1018.54 1018.34 1018.22 1018.10 1017.98 1017.86 1017.70 1017.46 1017.30 1017.18 1017.10 1016.90 1016.78 1016.62 1016.50 1016.38 1016.22 1015.90 1015.58 1015.46 1015.34 1015.38 1015.58 1015.70 1015.86 1015.98 1015.94 1015.38 1014.82 1014.50 1014.30 1014.22 1014.10 1013.98 1013.86 1013.90
1019.42 1019.22 1019.10 1018.90 1018.74 1018.54 1018.42 1018.22 1018.06 1017.94 1017.86 1017.70 1017.50 1017.42 1017.26 1017.06 1016.90 1016.70 1016.58 1016.54 1016.50 1016.30 1016.14 1015.94 1015.62 1015.46 1015.46 1015.66 1015.62 1015.54 1015.54 1015.46 1015.26 1015.02 1015.02 1014.58 1014.18 1013.98 1013.82 1013.70 1013.58 1013.34
1019.18 1019.02 1018.94 1018.86 1018.70 1018.54 1018.38 1018.18 1018.06 1017.94 1017.82 1017.66 1017.46 1017.42 1017.30 1017.06 1016.86 1016.78 1016.66 1016.62 1016.50 1016.30 1016.10 1015.86 1015.62 1015.38 1015.54 1015.70 1015.74 1015.54 1015.42 1015.22 1015.02 1014.70 1014.54 1014.22 1013.98 1013.78 1013.66 1013.46 1013.30 1013.10
1019.02 1018.86 1018.82 1018.82 1018.66 1018.50 1018.42 1018.34 1018.22 1018.02 1017.86 1017.74 1017.58 1017.46 1017.30 1017.10 1017.02 1016.94 1016.78 1016.62 1016.42 1016.22 1015.98 1015.70 1015.50 1015.42 1015.70 1015.86 1015.78 1015.58 1015.34 1015.14 1014.86 1014.66 1014.38 1014.10 1013.82 1013.54 1013.38 1013.30 1013.14 1012.98
1018.94 1018.82 1018.82 1018.78 1018.70 1018.58 1018.50 1018.42 1018.30 1018.14 1017.98 1017.82 1017.70 1017.50 1017.30 1017.18 1017.06 1016.98 1016.90 1016.70 1016.46 1016.30 1016.06 1015.82 1015.70 1015.78 1015.82 1015.82 1015.78 1015.62 1015.42 1015.10 1014.82 1014.54 1014.30 1014.06 1013.82 1013.54 1013.26 1013.18 1013.10 1012.98
1018.98 1018.94 1018.90 1018.86 1018.74 1018.70 1018.58 1018.50 1018.34 1018.18 1018.06 1017.90 1017.70 1017.62 1017.46 1017.30 1017.18 1017.10 1016.94 1016.74 1016.54 1016.30 1016.10 1015.94 1015.82 1015.86 1015.90 1015.94 1015.94 1015.94 1015.70 1015.26 1014.94 1014.66 1014.34 1014.02 1013.82 1013.54 1013.22 1013.14 1013.10 1012.98
1019.10 1019.10 1019.02 1018.86 1018.78 1018.74 1018.66 1018.50 1018.38 1018.26 1018.14 1017.98 1017.86 1017.78 1017.62 1017.38 1017.26 1017.10 1016.94 1016.82 1016.62 1016.34 1016.10 1015.94 1015.78 1015.82 1016.02 1016.06 1015.90 1015.90 1015.94 1015.54 1015.14 1014.78 1014.38 1014.02 1013.78 1013.58 1013.38 1013.10 1013.10 1013.06
1019.14 1019.10 1019.02 1018.98 1018.94 1018.86 1018.78 1018.70 1018.54 1018.42 1018.26 1018.14 1018.02 1017.86 1017.66 1017.46 1017.34 1017.18 1016.98 1016.78 1016.54 1016.26 1016.02 1015.82 1015.62 1015.74 1015.74 1015.78 1015.82 1015.94 1015.98 1015.74 1015.34 1014.86 1014.42 1014.14 1013.90 1013.70 1013.46 1013.18 1013.06 1013.06
1019.14 1019.14 1019.06 1019.02 1019.02 1019.10 1019.10 1019.02 1018.86 1018.66 1018.50 1018.38 1018.22 1017.94 1017.70 1017.58 1017.42 1017.18 1016.94 1016.66 1016.42 1016.18 1015.90 1015.62 1015.42 1015.50 1015.54 1015.58 1015.66 1015.78 1015.78 1015.66 1015.22 1014.78 1014.42 1014.14 1013.98 1013.70 1013.46 1013.22 1013.02 1013.02
1019.22 1019.26 1019.30 1019.22 1019.14 1019.06 1019.06 1018.98 1018.86 1018.82 1018.66 1018.46 1018.22 1017.94 1017.82 1017.62 1017.38 1017.10 1016.78 1016.50 1016.26 1015.98 1015.70 1015.46 1015.30 1015.26 1015.42 1015.82 1016.10 1015.94 1015.74 1015.62 1014.98 1014.50 1014.10 1013.82 1013.66 1013.46 1013.30 1013.18 1013.06 1012.90
1019.42 1019.42 1019.46 1019.42 1019.34 1019.30 1019.26 1019.14 1019.02 1018.90 1018.70 1018.46 1018.26 1018.06 1017.86 1017.62 1017.34 1017.06 1016.66 1016.38 1016.14 1015.94 1015.70 1015.46 1015.22 1015.30 1015.62 1015.86 1015.86 1015.74 1015.46 1015.06 1014.58 1014.14 1013.82 1013.46 1013.22 1013.10 1012.98 1012.94 1012.86 1012.78
1019.42 1019.46 1019.46 1019.42 1019.38 1019.34 1019.30 1019.18 1019.14 1018.98 1018.78 1018.46 1018.26 1018.06 1017.78 1017.54 1017.26 1016.94 1016.58 1016.30 1016.10 1015.90 1015.74 1015.54 1015.22 1015.62 1016.18 1016.30 1016.14 1015.70 1015.34 1014.86 1014.42 1014.10 1013.74 1013.34 1012.98 1012.74 1012.70 1012.70 1012.62 1012.58
1019.42 1019.50 1019.58 1019.58 1019.54 1019.46 1019.38 1019.26 1019.14 1018.94 1018.70 1018.42 1018.26 1017.98 1017.78 1017.50 1017.22 1016.90 1016.54 1016.30 1016.10 1015.86 1015.66 1015.54 1015.38 1016.06 1015.94 1015.94 1015.86 1015.62 1015.30 1014.78 1014.42 1014.06 1013.66 1013.30 1012.98 1012.74 1012.66 1012.46 1012.38 1012.34
1019.46 1019.50 1019.54 1019.54 1019.50 1019.38 1019.34 1019.18 1018.98 1018.78 1018.62 1018.38 1018.18 1017.94 1017.66 1017.34 1017.02 1016.78 1016.54 1016.34 1016.10 1015.78 1015.62 1015.54 1015.74 1016.06 1015.94 1015.90 1015.82 1015.54 1015.30 1014.94 1014.54 1014.22 1013.82 1013.46 1012.98 1012.86 1012.78 1012.50 1012.18 1012.06
1019.30 1019.34 1019.46 1019.54 1019.50 1019.38 1019.22 1019.02 1018.82 1018.58 1018.34 1018.18 1018.02 1017.78 1017.46 1017.10 1016.86 1016.74 1016.50 1016.26 1015.98 1015.70 1015.50 1015.70 1015.78 1015.50 1015.98 1016.02 1015.74 1015.66 1015.38 1015.02 1014.62 1014.30 1014.02 1013.66 1013.38 1013.06 1012.74 1012.34 1011.98 1011.90
1019.14 1019.26 1019.38 1019.50 1019.46 1019.34 1019.14 1018.90 1018.62 1018.34 1018.14 1017.98 1017.78 1017.54 1017.26 1016.98 1016.78 1016.54 1016.34 1016.10 1015.82 1015.62 1015.46 1015.62 1015.58 1016.06 1016.34 1015.86 1015.70 1015.50 1015.46 1015.22 1014.70 1014.38 1014.26 1014.06 1013.78 1013.46 1012.94 1012.26 1012.02 1012.06
Wind_Speed
5 5 5 5 4 4 4 5 6 6 5 5 5 5 6 5 6 5 6 6 6 6 5 5 5 4 4 4 5 5 5 5 6 5 5 5 5 4 5 8 9 7
5 5 5 5 5 5 4 3 5 6 5 4 5 5 6 6 5 5 5 6 6 7 6 6 6 6 5 4 4 4 5 5 7 5 5 6 6 4 7 8 7 9
6 6 6 6 6 6 5 5 5 5 5 6 5 5 6 6 6 6 6 5 5 5 5 5 5 6 7 6 4 5 5 6 7 7 6 6 5 6 7 5 6 9
6 7 7 7 7 6 5 6 6 6 5 5 6 5 5 5 5 7 6 8 7 5 4 6 5 5 7 8 6 5 6 6 7 7 7 7 7 6 8 6 7 7
7 7 6 6 6 6 7 7 8 7 7 6 6 7 7 5 4 5 6 6 7 9 8 7 5 5 6 6 4 9 9 7 7 7 6 6 7 7 10 8 7 9
7 7 7 7 6 7 7 8 8 7 8 8 7 7 7 7 4 6 5 4 6 8 10 9 6 6 7 4 2 6 7 6 8 8 8 9 8 7 6 7 9 8
8 7 7 7 7 6 6 7 8 7 4 5 7 7 8 7 6 9 6 3 6 7 9 10 8 6 6 4 5 4 5 7 8 8 7 8 9 9 8 9 10 9
8 7 7 6 5 5 5 6 8 8 4 5 6 8 7 9 10 8 8 8 8 8 8 9 11 9 8 4 4 4 7 7 7 6 7 7 7 10 10 7 9 8
8 8 8 7 7 5 6 6 5 7 8 6 6 6 7 7 8 9 10 11 10 9 8 7 9 11 9 6 6 7 6 7 6 5 5 8 7 7 9 8 9 7
9 9 8 9 10 6 7 7 7 7 7 8 9 7 8 7 9 10 10 10 11 10 11 9 8 8 10 9 8 5 6 5 10 7 6 6 6 7 7 7 8 9
9 8 8 7 8 6 6 6 6 6 6 8 9 9 8 7 8 8 8 8 8 10 12 13 9 8 10 10 11 10 11 9 10 9 7 7 7 6 7 8 8 9
7 5 7 8 7 6 6 6 5 5 7 7 8 9 9 8 9 8 6 9 11 11 10 12 11 9 7 6 6 6 7 7 9 10 9 8 6 8 8 7 8 9
8 5 6 7 6 7 8 8 8 7 9 10 8 9 10 10 9 10 10 10 10 10 11 11 11 8 4 5 4 5 5 7 7 8 8 7 6 6 7 7 8 8
6 4 6 7 7 7 7 7 9 10 8 8 9 10 10 10 11 11 10 10 10 10 10 9 8 8 6 6 4 5 5 6 7 8 8 8 8 7 6 7 7 8
6 5 5 7 8 7 7 8 9 8 8 10 9 9 8 9 10 11 12 12 12 11 12 11 9 5 2 4 5 5 6 7 7 8 8 8 8 8 6 5 6 6
8 7 8 7 7 8 8 8 9 8 9 9 9 9 9 9 9 10 11 11 12 12 10 9 8 2 4 5 4 4 6 6 7 7 8 8 8 9 7 3 2 2
8 9 9 9 7 8 8 10 10 8 8 8 8 9 9 9 9 10 10 10 12 11 10 8 8 3 5 5 5 6 5 6 7 8 8 8 8 8 8 6 4 2
8 9 9 8 9 10 10 10 10 10 10 9 9 9 9 9 9 10 10 10 9 10 9 8 7 2 3 4 5 5 4 5 6 7 7 7 7 8 7 7 5 4
9 9 9 8 8 9 9 9 10 11 11 11 11 9 8 10 10 10 10 10 9 10 10 8 8 4 4 4 6 6 4 5 5 6 7 7 7 8 8 7 7 5
9 10 10 10 9 8 8 9 9 9 9 9 9 9 9 10 10 10 10 9 10 10 9 7 8 3 4 4 5 6 7 6 7 6 7 6 7 7 7 7 6 6
10 9 9 9 9 9 9 9 9 8 10 9 8 9 9 10 10 10 10 8 9 10 10 9 7 2 1 2 6 7 11 9 6 7 7 7 6 7 6 5 6 7
9 9 8 8 8 8 9 9 10 10 10 9 8 8 8 8 9 10 9 9 9 10 10 9 10 9 9 9 8 9 11 7 8 8 8 8 8 6 5 5 6 7
8 9 9 9 9 9 10 9 9 10 9 8 9 9 9 9 9 9 9 9 10 10 10 9 8 7 6 4 4 8 7 7 7 7 7 8 8 7 7 5 4 6
8 8 8 8 8 9 9 8 8 7 8 8 9 9 9 9 8 9 9 10 10 10 9 9 7 3 1 1 6 9 7 7 6 7 8 8 8 6 6 7 7 10
5 7 8 8 10 9 8 8 8 7 7 6 8 9 9 8 8 9 9 9 9 8 11 8 2 2 4 7 7 7 7 5 6 6 7 8 9 8 8 6 5 4
5 5 5 6 9 9 8 8 8 7 6 6 7 8 9 8 8 8 9 8 8 8 6 4 4 6 2 4 6 7 6 5 6 7 7 9 9 9 9 7 5 6
Wind_Direction
5 356 353 341 346 346 343 347 336 336 338 338 341 341 338 338 323 331 329 325 323 310 306 304 307 295 284 284 285 279 287 300 286 270 260 265 269 281 285 294 298 277
353 349 349 329 338 331 341 350 333 331 329 335 342 339 335 329 326 324 324 314 315 315 317 313 303 297 285 276 263 262 265 267 278 275 264 259 261 249 251 250 262 280
353 343 348 341 340 332 345 352 334 326 330 337 345 344 333 329 327 327 319 310 300 304 304 305 299 300 292 273 264 251 251 258 264 271 269 265 273 268 262 253 238 259
348 350 343 343 335 333 354 348 335 324 329 334 342 329 327 314 326 323 321 317 310 305 304 296 293 273 278 279 261 257 256 248 248 248 253 251 246 249 266 242 250 249
346 346 340 339 331 348 356 340 331 335 338 342 331 331 316 310 317 318 314 324 335 330 314 298 296 294 278 280 7 321 303 291 274 261 252 259 261 234 241 245 229 241
346 341 340 329 348 354 340 332 334 338 338 332 328 315 305 308 316 306 302 334 332 315 313 310 306 307 297 284 223 218 248 266 269 263 268 267 255 240 238 242 261 251
338 340 333 348 347 347 339 337 328 316 314 325 318 314 312 311 318 304 304 325 325 323 318 314 311 310 308 298 267 254 256 260 259 270 276 275 269 260 253 234 231 235
339 333 341 332 346 344 349 328 310 305 322 333 319 311 319 328 320 325 334 339 335 319 316 319 319 314 311 311 297 253 249 255 273 269 266 270 278 284 275 262 257 249
341 337 334 334 347 337 314 303 310 337 334 326 318 326 323 319 339 339 338 336 327 317 313 316 317 320 319 312 280 284 302 302 277 266 271 282 279 264 262 261 253 232
343 335 336 351 332 326 327 344 346 332 328 332 330 321 331 344 336 333 334 327 315 316 317 311 312 317 317 319 317 305 285 312 296 293 294 292 293 296 278 270 273 265
333 338 333 328 312 325 329 336 334 332 333 335 324 325 332 329 327 320 310 308 316 327 322 316 321 328 323 345 354 352 353 335 310 299 293 287 285 279 281 279 272 265
317 317 317 311 317 324 327 326 322 328 330 315 322 326 327 323 312 307 315 337 332 325 322 318 323 323 345 12 348 345 335 322 312 310 299 287 283 280 276 271 266 260
306 323 331 331 334 340 338 336 339 335 328 331 336 336 326 323 333 341 341 339 327 324 323 315 310 314 24 359 351 329 316 310 301 291 284 289 291 282 276 274 269 264
319 352 351 337 339 340 340 338 339 334 339 340 338 329 322 335 343 339 334 328 323 316 314 312 320 348 26 357 328 321 316 317 318 314 312 306 296 288 287 293 291 276
334 359 359 343 335 336 343 342 333 333 341 337 327 323 336 343 341 336 332 325 328 332 329 332 334 5 21 328 328 325 325 319 319 315 312 308 303 298 293 294 281 259
347 356 349 334 329 347 339 335 331 333 334 325 330 341 339 337 336 331 322 322 325 323 322 322 328 330 348 345 333 330 315 312 315 314 312 309 306 303 299 286 290 285
1 348 332 331 353 339 338 333 334 334 330 330 343 340 334 335 331 321 327 329 321 319 319 320 324 6 354 313 330 344 319 314 315 312 307 304 305 306 304 296 258 262
352 337 333 349 347 341 338 343 340 337 333 338 339 333 333 328 324 327 322 317 313 312 315 315 316 113 309 295 316 308 301 309 306 304 307 306 306 304 299 295 265 237
340 334 335 339 348 0 358 347 342 335 342 340 333 331 328 330 323 317 315 314 313 313 309 311 319 200 280 290 289 295 310 306 295 300 298 301 300 300 297 295 284 241
344 346 344 345 346 346 343 338 330 333 333 329 326 326 327 320 317 313 310 310 311 310 311 316 319 274 234 271 307 332 324 311 288 287 283 279 286 287 290 286 282 262
343 346 341 345 346 348 346 336 335 333 330 325 324 323 321 318 316 313 310 312 319 323 325 321 319 340 269 22 10 352 337 317 292 305 304 288 268 265 264 265 254 250
338 342 340 338 338 338 334 337 340 333 325 323 322 317 313 314 313 310 314 321 323 324 320 324 331 36 48 32 2 351 335 318 322 312 303 301 298 275 257 241 244 243
351 348 350 352 351 342 339 338 330 325 323 323 317 313 312 312 312 310 318 323 322 320 322 324 342 68 59 46 6 347 340 327 318 311 303 306 304 315 318 289 249 244
343 345 341 339 334 332 332 325 321 319 318 319 315 316 309 307 311 319 324 322 315 318 326 329 9 66 27 355 9 3 341 332 319 316 314 308 314 332 327 307 285 300
338 345 345 342 337 331 324 317 314 311 302 310 311 306 304 310 324 318 316 315 310 318 330 358 330 269 52 14 353 344 343 336 329 325 324 327 326 322 315 294 288 283
340 349 348 342 329 320 314 312 307 301 311 308 299 307 311 316 310 304 307 312 314 322 343 333 334 20 28 294 327 329 2 330 333 340 344 335 328 322 314 313 326 323